STARLINK-5742 (55583 NORAD) Tracking and Keplerian Element Data

This shows tracking and keplerian element data for the satellite.

Feedback or suggestion? Click here.




ElementValue
Catalog55583
NameSTARLINK-5742
Epoch Orbit654
Epoch Day85.25001157
Epoch Year2023
RAAN110.1246
Inclination42.9961
Eccentricity0.0001231
Argument of Perigee259.2665
Mean Anonmoly50.4395
Mean Motion15.07020868
Decay Rate-0.01214716
L11 55583U 23020Q 23085.25001157 -.01214716 00000+0 -87114-1 0 9997
L22 55583 42.9961 110.1246 0001231 259.2665 50.4395 15.07020868 6544



Live tracking and technical data element details for STARLINK-5742 (NORAD 55583). STARLINK-5742 can be tracked NOW for your location showing map with azimuth and elevation plus other details from your city location.







IsCatalogInMostPopularTable: catalog: 55583, numindb: -1

Insert: records affected: 1


GetName: 55583 STARLINK-5742

Hit Count: inserted at: Tue, 28 Mar 2023 01:31:15 GMT